{"data":{"norad_id":61762,"epoch":"2026-06-13T21:59:06.795168Z","epoch_age_seconds":8532105,"freshness":"OLD","line1":"1 61762U 24199AD  26164.91605087  .06613865  24633-5  93372-3 0  9997","line2":"2 61762  97.2748  49.1240 0010283 233.0518 126.9838 16.34840585137605","mean_motion":16.34840585,"eccentricity":0.0010283,"inclination_deg":97.2748,"raan_deg":49.124,"arg_perigee_deg":233.0518,"mean_anomaly_deg":126.9838,"bstar":0.00093372,"rev_number":13760,"period_min":88.081982623401,"perigee_km":172.82006139015,"apogee_km":186.30662791897,"semimajor_km":6557.7003446546,"source":"CELESTRAK","updated_at":"2026-06-14T09:01:17.427484Z"}}